Year,Month,Day,Hour,Minute,Value (Times are PST for temperature in C)
2018,06,04,00,00,11.10
2018,06,04,00,01,11.10
2018,06,04,00,02,11.10
2018,06,04,00,03,11.10
2018,06,04,00,04,11.10
2018,06,04,00,05,11.10
2018,06,04,00,06,11.10
2018,06,04,00,07,11.10
2018,06,04,00,08,11.10
2018,06,04,00,09,11.10
2018,06,04,00,10,11.10
2018,06,04,00,11,11.10
2018,06,04,00,12,11.10
2018,06,04,00,13,11.10
2018,06,04,00,14,11.00
2018,06,04,00,15,11.00
2018,06,04,00,16,11.00
2018,06,04,00,17,11.00
2018,06,04,00,18,11.00
2018,06,04,00,19,11.00
2018,06,04,00,20,11.10
2018,06,04,00,21,11.10
2018,06,04,00,22,11.10
2018,06,04,00,23,11.10
2018,06,04,00,24,11.10
2018,06,04,00,25,11.10
2018,06,04,00,26,11.10
2018,06,04,00,27,11.00
2018,06,04,00,28,11.00
2018,06,04,00,29,11.00
2018,06,04,00,30,11.00
2018,06,04,00,31,11.00
2018,06,04,00,32,11.00
2018,06,04,00,33,11.00
2018,06,04,00,34,10.90
2018,06,04,00,35,10.90
2018,06,04,00,36,10.90
2018,06,04,00,37,10.90
2018,06,04,00,38,10.90
2018,06,04,00,39,10.90
2018,06,04,00,40,10.90
2018,06,04,00,41,10.90
2018,06,04,00,42,10.90
2018,06,04,00,43,10.90
2018,06,04,00,44,10.90
2018,06,04,00,45,10.90
2018,06,04,00,46,10.90
2018,06,04,00,47,10.90
2018,06,04,00,48,10.90
2018,06,04,00,49,10.90
2018,06,04,00,50,10.90
2018,06,04,00,51,10.90
2018,06,04,00,52,10.90
2018,06,04,00,53,10.90
2018,06,04,00,54,10.90
2018,06,04,00,55,10.80
2018,06,04,00,56,10.80
2018,06,04,00,57,10.80
2018,06,04,00,58,10.80
2018,06,04,00,59,10.80
2018,06,04,01,00,10.80
2018,06,04,01,01,10.80
2018,06,04,01,02,10.80
2018,06,04,01,03,10.80
2018,06,04,01,04,10.80
2018,06,04,01,05,10.80
2018,06,04,01,06,10.80
2018,06,04,01,07,10.80
2018,06,04,01,08,10.80
2018,06,04,01,09,10.80
2018,06,04,01,10,10.80
2018,06,04,01,11,10.80
2018,06,04,01,12,10.80
2018,06,04,01,13,10.80
2018,06,04,01,14,10.80
2018,06,04,01,15,10.80
2018,06,04,01,16,10.80
2018,06,04,01,17,10.80
2018,06,04,01,18,10.80
2018,06,04,01,19,10.80
2018,06,04,01,20,10.80
2018,06,04,01,21,10.80
2018,06,04,01,22,10.80
2018,06,04,01,23,10.70
2018,06,04,01,24,10.70
2018,06,04,01,25,10.70
2018,06,04,01,26,10.70
2018,06,04,01,27,10.70
2018,06,04,01,28,10.60
2018,06,04,01,29,10.60
2018,06,04,01,30,10.60
2018,06,04,01,31,10.60
2018,06,04,01,32,10.60
2018,06,04,01,33,10.60
2018,06,04,01,34,10.50
2018,06,04,01,35,10.50
2018,06,04,01,36,10.50
2018,06,04,01,37,10.40
2018,06,04,01,38,10.40
2018,06,04,01,39,10.40
2018,06,04,01,40,10.30
2018,06,04,01,41,10.30
2018,06,04,01,42,10.30
2018,06,04,01,43,10.30
2018,06,04,01,44,10.30
2018,06,04,01,45,10.30
2018,06,04,01,46,10.20
2018,06,04,01,47,10.20
2018,06,04,01,48,10.20
2018,06,04,01,49,10.20
2018,06,04,01,50,10.20
2018,06,04,01,51,10.10
2018,06,04,01,52,10.10
2018,06,04,01,53,10.10
2018,06,04,01,54,10.10
2018,06,04,01,55,10.10
2018,06,04,01,56,10.10
2018,06,04,01,57,10.10
2018,06,04,01,58,10.10
2018,06,04,01,59,10.10
2018,06,04,02,00,10.10
2018,06,04,02,01,10.10
2018,06,04,02,02,10.10
2018,06,04,02,03,10.10
2018,06,04,02,04,10.20
2018,06,04,02,05,10.20
2018,06,04,02,06,10.20
2018,06,04,02,07,10.20
2018,06,04,02,08,10.20
2018,06,04,02,09,10.20
2018,06,04,02,10,10.30
2018,06,04,02,11,10.30
2018,06,04,02,12,10.30
2018,06,04,02,13,10.30
2018,06,04,02,14,10.40
2018,06,04,02,15,10.40
2018,06,04,02,16,10.40
2018,06,04,02,17,10.40
2018,06,04,02,18,10.40
2018,06,04,02,19,10.50
2018,06,04,02,20,10.50
2018,06,04,02,21,10.50
2018,06,04,02,22,10.50
2018,06,04,02,23,10.50
2018,06,04,02,24,10.50
2018,06,04,02,25,10.50
2018,06,04,02,26,10.60
2018,06,04,02,27,10.60
2018,06,04,02,28,10.60
2018,06,04,02,29,10.60
2018,06,04,02,30,10.50
2018,06,04,02,31,10.50
2018,06,04,02,32,10.50
2018,06,04,02,33,10.50
2018,06,04,02,34,10.50
2018,06,04,02,35,10.50
2018,06,04,02,36,10.50
2018,06,04,02,37,10.50
2018,06,04,02,38,10.50
2018,06,04,02,39,10.50
2018,06,04,02,40,10.50
2018,06,04,02,41,10.50
2018,06,04,02,42,10.50
2018,06,04,02,43,10.50
2018,06,04,02,44,10.50
2018,06,04,02,45,10.50
2018,06,04,02,46,10.40
2018,06,04,02,47,10.40
2018,06,04,02,48,10.40
2018,06,04,02,49,10.40
2018,06,04,02,50,10.40
2018,06,04,02,51,10.40
2018,06,04,02,52,10.40
2018,06,04,02,53,10.40
2018,06,04,02,54,10.40
2018,06,04,02,55,10.30
2018,06,04,02,56,10.30
2018,06,04,02,57,10.30
2018,06,04,02,58,10.30
2018,06,04,02,59,10.20
2018,06,04,03,00,10.20
2018,06,04,03,01,10.20
2018,06,04,03,02,10.10
2018,06,04,03,03,10.10
2018,06,04,03,04,10.00
2018,06,04,03,05,10.00
2018,06,04,03,06,9.90
2018,06,04,03,07,9.90
2018,06,04,03,08,9.90
2018,06,04,03,09,9.80
2018,06,04,03,10,9.80
2018,06,04,03,11,9.70
2018,06,04,03,12,9.70
2018,06,04,03,13,9.70
2018,06,04,03,14,9.60
2018,06,04,03,15,9.60
2018,06,04,03,16,9.50
2018,06,04,03,17,9.50
2018,06,04,03,18,9.40
2018,06,04,03,19,9.40
2018,06,04,03,20,9.40
2018,06,04,03,21,9.30
2018,06,04,03,22,9.30
2018,06,04,03,23,9.30
2018,06,04,03,24,9.30
2018,06,04,03,25,9.20
2018,06,04,03,26,9.20
2018,06,04,03,27,9.20
2018,06,04,03,28,9.20
2018,06,04,03,29,9.10
2018,06,04,03,30,9.10
2018,06,04,03,31,9.10
2018,06,04,03,32,9.00
2018,06,04,03,33,9.00
2018,06,04,03,34,8.90
2018,06,04,03,35,8.90
2018,06,04,03,36,8.90
2018,06,04,03,37,8.80
2018,06,04,03,38,8.80
2018,06,04,03,39,8.80
2018,06,04,03,40,8.80
2018,06,04,03,41,8.70
2018,06,04,03,42,8.70
2018,06,04,03,43,8.70
2018,06,04,03,44,8.70
2018,06,04,03,45,8.60
2018,06,04,03,46,8.60
2018,06,04,03,47,8.60
2018,06,04,03,48,8.60
2018,06,04,03,49,8.50
2018,06,04,03,50,8.50
2018,06,04,03,51,8.40
2018,06,04,03,52,8.40
2018,06,04,03,53,8.40
2018,06,04,03,54,8.40
2018,06,04,03,55,8.30
2018,06,04,03,56,8.30
2018,06,04,03,57,8.30
2018,06,04,03,58,8.30
2018,06,04,03,59,8.20
2018,06,04,04,00,8.20
2018,06,04,04,01,8.20
2018,06,04,04,02,8.10
2018,06,04,04,03,8.10
2018,06,04,04,04,8.10
2018,06,04,04,05,8.10
2018,06,04,04,06,8.00
2018,06,04,04,07,8.00
2018,06,04,04,08,7.90
2018,06,04,04,09,7.90
2018,06,04,04,10,7.90
2018,06,04,04,11,7.90
2018,06,04,04,12,7.90
2018,06,04,04,13,7.80
2018,06,04,04,14,7.80
2018,06,04,04,15,7.80
2018,06,04,04,16,7.80
2018,06,04,04,17,7.80
2018,06,04,04,18,7.80
2018,06,04,04,19,7.80
2018,06,04,04,20,7.70
2018,06,04,04,21,7.70
2018,06,04,04,22,7.70
2018,06,04,04,23,7.70
2018,06,04,04,24,7.70
2018,06,04,04,25,7.70
2018,06,04,04,26,7.70
2018,06,04,04,27,7.60
2018,06,04,04,28,7.60
2018,06,04,04,29,7.60
2018,06,04,04,30,7.60
2018,06,04,04,31,7.60
2018,06,04,04,32,7.60
2018,06,04,04,33,7.50
2018,06,04,04,34,7.50
2018,06,04,04,35,7.40
2018,06,04,04,36,7.40
2018,06,04,04,37,7.40
2018,06,04,04,38,7.40
2018,06,04,04,39,7.40
2018,06,04,04,40,7.40
2018,06,04,04,41,7.30
2018,06,04,04,42,7.30
2018,06,04,04,43,7.30
2018,06,04,04,44,7.30
2018,06,04,04,45,7.30
2018,06,04,04,46,7.30
2018,06,04,04,47,7.30
2018,06,04,04,48,7.30
2018,06,04,04,49,7.30
2018,06,04,04,50,7.20
2018,06,04,04,51,7.20
2018,06,04,04,52,7.20
2018,06,04,04,53,7.20
2018,06,04,04,54,7.20
2018,06,04,04,55,7.20
2018,06,04,04,56,7.20
2018,06,04,04,57,7.20
2018,06,04,04,58,7.20
2018,06,04,04,59,7.10
2018,06,04,05,00,7.10
2018,06,04,05,01,7.10
2018,06,04,05,02,7.10
2018,06,04,05,03,7.10
2018,06,04,05,04,7.00
2018,06,04,05,05,7.00
2018,06,04,05,06,7.00
2018,06,04,05,07,7.00
2018,06,04,05,08,6.90
2018,06,04,05,09,6.90
2018,06,04,05,10,6.90
2018,06,04,05,11,6.90
2018,06,04,05,12,6.90
2018,06,04,05,13,6.90
2018,06,04,05,14,6.90
2018,06,04,05,15,6.80
2018,06,04,05,16,6.80
2018,06,04,05,17,6.80
2018,06,04,05,18,6.80
2018,06,04,05,19,6.80
2018,06,04,05,20,6.80
2018,06,04,05,21,6.80
2018,06,04,05,22,6.80
2018,06,04,05,23,6.80
2018,06,04,05,24,6.70
2018,06,04,05,25,6.70
2018,06,04,05,26,6.70
2018,06,04,05,27,6.70
2018,06,04,05,28,6.70
2018,06,04,05,29,6.70
2018,06,04,05,30,6.70
2018,06,04,05,31,6.60
2018,06,04,05,32,6.60
2018,06,04,05,33,6.60
2018,06,04,05,34,6.60
2018,06,04,05,35,6.60
2018,06,04,05,36,6.70
2018,06,04,05,37,6.70
2018,06,04,05,38,6.70
2018,06,04,05,39,6.70
2018,06,04,05,40,6.70
2018,06,04,05,41,6.60
2018,06,04,05,42,6.60
2018,06,04,05,43,6.60
2018,06,04,05,44,6.70
2018,06,04,05,45,6.70
2018,06,04,05,46,6.70
2018,06,04,05,47,6.70
2018,06,04,05,48,6.70
2018,06,04,05,49,6.70
2018,06,04,05,50,6.70
2018,06,04,05,51,6.70
2018,06,04,05,52,6.70
2018,06,04,05,53,6.70
2018,06,04,05,54,6.80
2018,06,04,05,55,6.80
2018,06,04,05,56,6.80
2018,06,04,05,57,6.80
2018,06,04,05,58,6.80
2018,06,04,05,59,6.80
2018,06,04,06,00,6.80
2018,06,04,06,01,6.80
2018,06,04,06,02,6.90
2018,06,04,06,03,6.90
2018,06,04,06,04,7.00
2018,06,04,06,05,7.00
2018,06,04,06,06,7.10
2018,06,04,06,07,7.20
2018,06,04,06,08,7.30
2018,06,04,06,09,7.60
2018,06,04,06,10,7.90
2018,06,04,06,11,8.10
2018,06,04,06,12,8.30
2018,06,04,06,13,8.50
2018,06,04,06,14,8.70
2018,06,04,06,15,8.90
2018,06,04,06,16,9.00
2018,06,04,06,17,9.10
2018,06,04,06,18,9.30
2018,06,04,06,19,9.40
2018,06,04,06,20,9.40
2018,06,04,06,21,9.50
2018,06,04,06,22,9.60
2018,06,04,06,23,9.60
2018,06,04,06,24,9.70
2018,06,04,06,25,9.70
2018,06,04,06,26,9.70
2018,06,04,06,27,9.70
2018,06,04,06,28,9.80
2018,06,04,06,29,9.80
2018,06,04,06,30,9.80
2018,06,04,06,31,9.80
2018,06,04,06,32,9.80
2018,06,04,06,33,9.80
2018,06,04,06,34,9.80
2018,06,04,06,35,9.80
2018,06,04,06,36,9.80
2018,06,04,06,37,9.80
2018,06,04,06,38,9.90
2018,06,04,06,39,9.90
2018,06,04,06,40,9.90
2018,06,04,06,41,9.90
2018,06,04,06,42,9.90
2018,06,04,06,43,9.90
2018,06,04,06,44,9.90
2018,06,04,06,45,9.90
2018,06,04,06,46,10.00
2018,06,04,06,47,10.00
2018,06,04,06,48,10.10
2018,06,04,06,49,10.10
2018,06,04,06,50,10.10
2018,06,04,06,51,10.20
2018,06,04,06,52,10.20
2018,06,04,06,53,10.20
2018,06,04,06,54,10.30
2018,06,04,06,55,10.30
2018,06,04,06,56,10.30
2018,06,04,06,57,10.40
2018,06,04,06,58,10.40
2018,06,04,06,59,10.50
2018,06,04,07,00,10.50
2018,06,04,07,01,10.60
2018,06,04,07,02,10.60
2018,06,04,07,03,10.60
2018,06,04,07,04,10.60
2018,06,04,07,05,10.60
2018,06,04,07,06,10.70
2018,06,04,07,07,10.70
2018,06,04,07,08,10.70
2018,06,04,07,09,10.70
2018,06,04,07,10,10.80
2018,06,04,07,11,10.80
2018,06,04,07,12,10.80
2018,06,04,07,13,10.90
2018,06,04,07,14,10.90
2018,06,04,07,15,11.00
2018,06,04,07,16,11.00
2018,06,04,07,17,11.10
2018,06,04,07,18,11.10
2018,06,04,07,19,11.20
2018,06,04,07,20,11.20
2018,06,04,07,21,11.30
2018,06,04,07,22,11.30
2018,06,04,07,23,11.30
2018,06,04,07,24,11.40
2018,06,04,07,25,11.40
2018,06,04,07,26,11.50
2018,06,04,07,27,11.50
2018,06,04,07,28,11.50
2018,06,04,07,29,11.60
2018,06,04,07,30,11.60
2018,06,04,07,31,11.60
2018,06,04,07,32,11.70
2018,06,04,07,33,11.70
2018,06,04,07,34,11.70
2018,06,04,07,35,11.80
2018,06,04,07,36,11.80
2018,06,04,07,37,11.90
2018,06,04,07,38,11.90
2018,06,04,07,39,12.00
2018,06,04,07,40,12.00
2018,06,04,07,41,12.10
2018,06,04,07,42,12.10
2018,06,04,07,43,12.20
2018,06,04,07,44,12.20
2018,06,04,07,45,12.20
2018,06,04,07,46,12.20
2018,06,04,07,47,12.30
2018,06,04,07,48,12.30
2018,06,04,07,49,12.30
2018,06,04,07,50,12.30
2018,06,04,07,51,12.30
2018,06,04,07,52,12.30
2018,06,04,07,53,12.40
2018,06,04,07,54,12.40
2018,06,04,07,55,12.40
2018,06,04,07,56,12.40
2018,06,04,07,57,12.40
2018,06,04,07,58,12.40
2018,06,04,07,59,12.40
2018,06,04,08,00,12.40
2018,06,04,08,01,12.40
2018,06,04,08,02,12.30
2018,06,04,08,03,12.30
2018,06,04,08,04,12.30
2018,06,04,08,05,12.30
2018,06,04,08,06,12.30
2018,06,04,08,07,12.30
2018,06,04,08,08,12.30
2018,06,04,08,09,12.40
2018,06,04,08,10,12.40
2018,06,04,08,11,12.50
2018,06,04,08,12,12.60
2018,06,04,08,13,12.60
2018,06,04,08,14,12.60
2018,06,04,08,15,12.60
2018,06,04,08,16,12.70
2018,06,04,08,17,12.70
2018,06,04,08,18,12.70
2018,06,04,08,19,12.70
2018,06,04,08,20,12.70
2018,06,04,08,21,12.80
2018,06,04,08,22,12.80
2018,06,04,08,23,12.80
2018,06,04,08,24,12.80
2018,06,04,08,25,12.80
2018,06,04,08,26,12.80
2018,06,04,08,27,12.80
2018,06,04,08,28,12.80
2018,06,04,08,29,12.80
2018,06,04,08,30,12.80
2018,06,04,08,31,12.80
2018,06,04,08,32,12.90
2018,06,04,08,33,12.90
2018,06,04,08,34,12.90
2018,06,04,08,35,12.90
2018,06,04,08,36,13.00
2018,06,04,08,37,13.10
2018,06,04,08,38,13.10
2018,06,04,08,39,13.20
2018,06,04,08,40,13.20
2018,06,04,08,41,13.20
2018,06,04,08,42,13.30
2018,06,04,08,43,13.20
2018,06,04,08,44,13.30
2018,06,04,08,45,13.30
2018,06,04,08,46,13.30
2018,06,04,08,47,13.40
2018,06,04,08,48,13.40
2018,06,04,08,49,13.30
2018,06,04,08,50,13.30
2018,06,04,08,51,13.30
2018,06,04,08,52,13.40
2018,06,04,08,53,13.50
2018,06,04,08,54,13.50
2018,06,04,08,55,13.50
2018,06,04,08,56,13.50
2018,06,04,08,57,13.40
2018,06,04,08,58,13.50
2018,06,04,08,59,13.50
2018,06,04,09,00,13.60
2018,06,04,09,01,13.60
2018,06,04,09,02,13.70
2018,06,04,09,03,13.70
2018,06,04,09,04,13.70
2018,06,04,09,05,13.60
2018,06,04,09,06,13.70
2018,06,04,09,07,13.70
2018,06,04,09,08,13.70
2018,06,04,09,09,13.80
2018,06,04,09,10,13.80
2018,06,04,09,11,13.90
2018,06,04,09,12,13.90
2018,06,04,09,13,13.90
2018,06,04,09,14,13.80
2018,06,04,09,15,13.80
2018,06,04,09,16,13.90
2018,06,04,09,17,14.00
2018,06,04,09,18,14.00
2018,06,04,09,19,14.00
2018,06,04,09,20,14.00
2018,06,04,09,21,14.10
2018,06,04,09,22,14.10
2018,06,04,09,23,14.10
2018,06,04,09,24,14.10
2018,06,04,09,25,14.10
2018,06,04,09,26,14.20
2018,06,04,09,27,14.20
2018,06,04,09,28,14.20
2018,06,04,09,29,14.30
2018,06,04,09,30,14.30
2018,06,04,09,31,14.40
2018,06,04,09,32,14.50
2018,06,04,09,33,14.50
2018,06,04,09,34,14.50
2018,06,04,09,35,14.50
2018,06,04,09,36,14.40
2018,06,04,09,37,14.40
2018,06,04,09,38,14.50
2018,06,04,09,39,14.50
2018,06,04,09,40,14.60
2018,06,04,09,41,14.50
2018,06,04,09,42,14.50
2018,06,04,09,43,14.50
2018,06,04,09,44,14.50
2018,06,04,09,45,14.40
2018,06,04,09,46,14.40
2018,06,04,09,47,14.40
2018,06,04,09,48,14.50
2018,06,04,09,49,14.50
2018,06,04,09,50,14.50
2018,06,04,09,51,14.60
2018,06,04,09,52,14.60
2018,06,04,09,53,14.60
2018,06,04,09,54,14.50
2018,06,04,09,55,14.50
2018,06,04,09,56,14.60
2018,06,04,09,57,14.70
2018,06,04,09,58,14.80
2018,06,04,09,59,14.80
2018,06,04,10,00,14.90
2018,06,04,10,01,15.00
2018,06,04,10,02,15.00
2018,06,04,10,03,14.90
2018,06,04,10,04,14.80
2018,06,04,10,05,14.80
2018,06,04,10,06,14.70
2018,06,04,10,07,14.80
2018,06,04,10,08,14.70
2018,06,04,10,09,14.80
2018,06,04,10,10,14.80
2018,06,04,10,11,14.90
2018,06,04,10,12,15.00
2018,06,04,10,13,15.00
2018,06,04,10,14,15.10
2018,06,04,10,15,15.20
2018,06,04,10,16,15.20
2018,06,04,10,17,15.30
2018,06,04,10,18,15.30
2018,06,04,10,19,15.40
2018,06,04,10,20,15.40
2018,06,04,10,21,15.40
2018,06,04,10,22,15.40
2018,06,04,10,23,15.40
2018,06,04,10,24,15.50
2018,06,04,10,25,15.60
2018,06,04,10,26,15.70
2018,06,04,10,27,15.80
2018,06,04,10,28,15.80
2018,06,04,10,29,15.80
2018,06,04,10,30,15.90
2018,06,04,10,31,15.80
2018,06,04,10,32,15.80
2018,06,04,10,33,15.80
2018,06,04,10,34,15.80
2018,06,04,10,35,15.80
2018,06,04,10,36,15.80
2018,06,04,10,37,15.80
2018,06,04,10,38,15.90
2018,06,04,10,39,15.90
2018,06,04,10,40,15.90
2018,06,04,10,41,15.80
2018,06,04,10,42,15.70
2018,06,04,10,43,15.60
2018,06,04,10,44,15.50
2018,06,04,10,45,15.50
2018,06,04,10,46,15.40
2018,06,04,10,47,15.30
2018,06,04,10,48,15.40
2018,06,04,10,49,15.50
2018,06,04,10,50,15.60
2018,06,04,10,51,15.60
2018,06,04,10,52,15.60
2018,06,04,10,53,15.60
2018,06,04,10,54,15.60
2018,06,04,10,55,15.60
2018,06,04,10,56,15.60
2018,06,04,10,57,15.70
2018,06,04,10,58,15.80
2018,06,04,10,59,15.90
2018,06,04,11,00,15.90
2018,06,04,11,01,16.00
2018,06,04,11,02,16.00
2018,06,04,11,03,16.00
2018,06,04,11,04,16.00
2018,06,04,11,05,16.00
2018,06,04,11,06,16.00
2018,06,04,11,07,15.90
2018,06,04,11,08,15.90
2018,06,04,11,09,15.90
2018,06,04,11,10,16.00
2018,06,04,11,11,16.10
2018,06,04,11,12,16.20
2018,06,04,11,13,16.20
2018,06,04,11,14,16.30
2018,06,04,11,15,16.40
2018,06,04,11,16,16.40
2018,06,04,11,17,16.30
2018,06,04,11,18,16.30
2018,06,04,11,19,16.30
2018,06,04,11,20,16.30
2018,06,04,11,21,16.30
2018,06,04,11,22,16.30
2018,06,04,11,23,16.30
2018,06,04,11,24,16.40
2018,06,04,11,25,16.40
2018,06,04,11,26,16.40
2018,06,04,11,27,16.40
2018,06,04,11,28,16.50
2018,06,04,11,29,16.60
2018,06,04,11,30,16.60
2018,06,04,11,31,16.70
2018,06,04,11,32,16.70
2018,06,04,11,33,16.70
2018,06,04,11,34,16.70
2018,06,04,11,35,16.60
2018,06,04,11,36,16.60
2018,06,04,11,37,16.50
2018,06,04,11,38,16.50
2018,06,04,11,39,16.50
2018,06,04,11,40,16.60
2018,06,04,11,41,16.60
2018,06,04,11,42,16.60
2018,06,04,11,43,16.60
2018,06,04,11,44,16.60
2018,06,04,11,45,16.50
2018,06,04,11,46,16.50
2018,06,04,11,47,16.40
2018,06,04,11,48,16.40
2018,06,04,11,49,16.30
2018,06,04,11,50,16.20
2018,06,04,11,51,16.10
2018,06,04,11,52,16.10
2018,06,04,11,53,16.10
2018,06,04,11,54,16.10
2018,06,04,11,55,16.10
2018,06,04,11,56,16.10
2018,06,04,11,57,16.10
2018,06,04,11,58,16.00
2018,06,04,11,59,15.90
2018,06,04,12,00,15.90
2018,06,04,12,01,15.90
2018,06,04,12,02,15.90
2018,06,04,12,03,16.00
2018,06,04,12,04,16.10
2018,06,04,12,05,16.10
2018,06,04,12,06,16.10
2018,06,04,12,07,16.00
2018,06,04,12,08,15.90
2018,06,04,12,09,15.80
2018,06,04,12,10,15.80
2018,06,04,12,11,15.80
2018,06,04,12,12,15.90
2018,06,04,12,13,15.90
2018,06,04,12,14,15.90
2018,06,04,12,15,16.00
2018,06,04,12,16,16.00
2018,06,04,12,17,16.10
2018,06,04,12,18,16.10
2018,06,04,12,19,16.20
2018,06,04,12,20,16.30
2018,06,04,12,21,16.30
2018,06,04,12,22,16.40
2018,06,04,12,23,16.50
2018,06,04,12,24,16.50
2018,06,04,12,25,16.60
2018,06,04,12,26,16.60
2018,06,04,12,27,16.60
2018,06,04,12,28,16.60
2018,06,04,12,29,16.60
2018,06,04,12,30,16.70
2018,06,04,12,31,16.80
2018,06,04,12,32,16.80
2018,06,04,12,33,16.90
2018,06,04,12,34,16.90
2018,06,04,12,35,17.00
2018,06,04,12,36,17.10
2018,06,04,12,37,17.10
2018,06,04,12,38,17.20
2018,06,04,12,39,17.20
2018,06,04,12,40,17.30
2018,06,04,12,41,17.20
2018,06,04,12,42,17.20
2018,06,04,12,43,17.20
2018,06,04,12,44,17.30
2018,06,04,12,45,17.30
2018,06,04,12,46,17.40
2018,06,04,12,47,17.40
2018,06,04,12,48,17.40
2018,06,04,12,49,17.50
2018,06,04,12,50,17.60
2018,06,04,12,51,17.70
2018,06,04,12,52,17.60
2018,06,04,12,53,17.60
2018,06,04,12,54,17.60
2018,06,04,12,55,17.60
2018,06,04,12,56,17.60
2018,06,04,12,57,17.60
2018,06,04,12,58,17.70
2018,06,04,12,59,17.70
2018,06,04,13,00,17.80
2018,06,04,13,01,17.90
2018,06,04,13,02,17.90
2018,06,04,13,03,17.90
2018,06,04,13,04,17.80
2018,06,04,13,05,17.70
2018,06,04,13,06,17.60
2018,06,04,13,07,17.50
2018,06,04,13,08,17.40
2018,06,04,13,09,17.30
2018,06,04,13,10,17.20
2018,06,04,13,11,17.20
2018,06,04,13,12,17.20
2018,06,04,13,13,17.20
2018,06,04,13,14,17.20
2018,06,04,13,15,17.30
2018,06,04,13,16,17.40
2018,06,04,13,17,17.40
2018,06,04,13,18,17.40
2018,06,04,13,19,17.30
2018,06,04,13,20,17.30
2018,06,04,13,21,17.40
2018,06,04,13,22,17.50
2018,06,04,13,23,17.60
2018,06,04,13,24,17.60
2018,06,04,13,25,17.70
2018,06,04,13,26,17.70
2018,06,04,13,27,17.70
2018,06,04,13,28,17.70
2018,06,04,13,29,17.80
2018,06,04,13,30,17.80
2018,06,04,13,31,17.80
2018,06,04,13,32,17.90
2018,06,04,13,33,17.90
2018,06,04,13,34,17.90
2018,06,04,13,35,17.90
2018,06,04,13,36,17.80
2018,06,04,13,37,17.80
2018,06,04,13,38,17.80
2018,06,04,13,39,17.80
2018,06,04,13,40,17.90
2018,06,04,13,41,17.80
2018,06,04,13,42,17.80
2018,06,04,13,43,17.80
2018,06,04,13,44,17.90
2018,06,04,13,45,17.80
2018,06,04,13,46,17.80
2018,06,04,13,47,17.70
2018,06,04,13,48,17.80
2018,06,04,13,49,17.80
2018,06,04,13,50,17.80
2018,06,04,13,51,17.70
2018,06,04,13,52,17.70
2018,06,04,13,53,17.70
2018,06,04,13,54,17.60
2018,06,04,13,55,17.50
2018,06,04,13,56,17.40
2018,06,04,13,57,17.30
2018,06,04,13,58,17.20
2018,06,04,13,59,17.20
2018,06,04,14,00,17.20
2018,06,04,14,01,17.20
2018,06,04,14,02,17.20
2018,06,04,14,03,17.20
2018,06,04,14,04,17.20
2018,06,04,14,05,17.30
2018,06,04,14,06,17.30
2018,06,04,14,07,17.40
2018,06,04,14,08,17.40
2018,06,04,14,09,17.50
2018,06,04,14,10,17.50
2018,06,04,14,11,17.60
2018,06,04,14,12,17.70
2018,06,04,14,13,17.70
2018,06,04,14,14,17.80
2018,06,04,14,15,17.80
2018,06,04,14,16,17.60
2018,06,04,14,17,17.60
2018,06,04,14,18,17.50
2018,06,04,14,19,17.50
2018,06,04,14,20,17.60
2018,06,04,14,21,17.60
2018,06,04,14,22,17.70
2018,06,04,14,23,17.80
2018,06,04,14,24,17.90
2018,06,04,14,25,18.00
2018,06,04,14,26,18.00
2018,06,04,14,27,18.00
2018,06,04,14,28,17.90
2018,06,04,14,29,17.90
2018,06,04,14,30,17.90
2018,06,04,14,31,17.90
2018,06,04,14,32,17.80
2018,06,04,14,33,17.80
2018,06,04,14,34,17.80
2018,06,04,14,35,17.80
2018,06,04,14,36,17.90
2018,06,04,14,37,18.00
2018,06,04,14,38,18.10
2018,06,04,14,39,18.10
2018,06,04,14,40,18.10
2018,06,04,14,41,18.20
2018,06,04,14,42,18.20
2018,06,04,14,43,18.20
2018,06,04,14,44,18.10
2018,06,04,14,45,18.10
2018,06,04,14,46,18.00
2018,06,04,14,47,18.10
2018,06,04,14,48,18.20
2018,06,04,14,49,18.20
2018,06,04,14,50,18.20
2018,06,04,14,51,18.20
2018,06,04,14,52,18.20
2018,06,04,14,53,18.20
2018,06,04,14,54,18.20
2018,06,04,14,55,18.20
2018,06,04,14,56,18.20
2018,06,04,14,57,18.30
2018,06,04,14,58,18.30
2018,06,04,14,59,18.20
2018,06,04,15,00,18.20
2018,06,04,15,01,18.20
2018,06,04,15,02,18.20
2018,06,04,15,03,18.30
2018,06,04,15,04,18.30
2018,06,04,15,05,18.20
2018,06,04,15,06,18.20
2018,06,04,15,07,18.20
2018,06,04,15,08,18.10
2018,06,04,15,09,18.10
2018,06,04,15,10,18.10
2018,06,04,15,11,18.10
2018,06,04,15,12,18.20
2018,06,04,15,13,18.30
2018,06,04,15,14,18.30
2018,06,04,15,15,18.40
2018,06,04,15,16,18.40
2018,06,04,15,17,18.40
2018,06,04,15,18,18.30
2018,06,04,15,19,18.30
2018,06,04,15,20,18.20
2018,06,04,15,21,18.20
2018,06,04,15,22,18.20
2018,06,04,15,23,18.20
2018,06,04,15,24,18.20
2018,06,04,15,25,18.10
2018,06,04,15,26,18.00
2018,06,04,15,27,17.90
2018,06,04,15,28,17.80
2018,06,04,15,29,17.80
2018,06,04,15,30,17.80
2018,06,04,15,31,17.80
2018,06,04,15,32,17.80
2018,06,04,15,33,17.80
2018,06,04,15,34,17.80
2018,06,04,15,35,17.80
2018,06,04,15,36,17.70
2018,06,04,15,37,17.70
2018,06,04,15,38,17.70
2018,06,04,15,39,17.80
2018,06,04,15,40,17.80
2018,06,04,15,41,17.80
2018,06,04,15,42,17.80
2018,06,04,15,43,17.80
2018,06,04,15,44,17.80
2018,06,04,15,45,17.90
2018,06,04,15,46,17.90
2018,06,04,15,47,18.00
2018,06,04,15,48,18.00
2018,06,04,15,49,18.00
2018,06,04,15,50,18.00
2018,06,04,15,51,18.10
2018,06,04,15,52,18.10
2018,06,04,15,53,18.10
2018,06,04,15,54,18.10
2018,06,04,15,55,18.20
2018,06,04,15,56,18.20
2018,06,04,15,57,18.20
2018,06,04,15,58,18.30
2018,06,04,15,59,18.30
2018,06,04,16,00,18.40
2018,06,04,16,01,18.40
2018,06,04,16,02,18.40
2018,06,04,16,03,18.50
2018,06,04,16,04,18.60
2018,06,04,16,05,18.60
2018,06,04,16,06,18.60
2018,06,04,16,07,18.60
2018,06,04,16,08,18.60
2018,06,04,16,09,18.60
2018,06,04,16,10,18.50
2018,06,04,16,11,18.50
2018,06,04,16,12,18.60
2018,06,04,16,13,18.50
2018,06,04,16,14,18.50
2018,06,04,16,15,18.50
2018,06,04,16,16,18.40
2018,06,04,16,17,18.40
2018,06,04,16,18,18.30
2018,06,04,16,19,18.30
2018,06,04,16,20,18.10
2018,06,04,16,21,18.10
2018,06,04,16,22,18.10
2018,06,04,16,23,18.10
2018,06,04,16,24,18.20
2018,06,04,16,25,18.20
2018,06,04,16,26,18.20
2018,06,04,16,27,18.30
2018,06,04,16,28,18.30
2018,06,04,16,29,18.30
2018,06,04,16,30,18.40
2018,06,04,16,31,18.50
2018,06,04,16,32,18.60
2018,06,04,16,33,18.70
2018,06,04,16,34,18.70
2018,06,04,16,35,18.70
2018,06,04,16,36,18.60
2018,06,04,16,37,18.60
2018,06,04,16,38,18.50
2018,06,04,16,39,18.40
2018,06,04,16,40,18.30
2018,06,04,16,41,18.40
2018,06,04,16,42,18.40
2018,06,04,16,43,18.40
2018,06,04,16,44,18.40
2018,06,04,16,45,18.30
2018,06,04,16,46,18.20
2018,06,04,16,47,18.20
2018,06,04,16,48,18.20
2018,06,04,16,49,18.30
2018,06,04,16,50,18.30
2018,06,04,16,51,18.40
2018,06,04,16,52,18.40
2018,06,04,16,53,18.40
2018,06,04,16,54,18.40
2018,06,04,16,55,18.50
2018,06,04,16,56,18.50
2018,06,04,16,57,18.50
2018,06,04,16,58,18.50
2018,06,04,16,59,18.50
2018,06,04,17,00,18.50
2018,06,04,17,01,18.60
2018,06,04,17,02,18.50
2018,06,04,17,03,18.40
2018,06,04,17,04,18.30
2018,06,04,17,05,18.30
2018,06,04,17,06,18.30
2018,06,04,17,07,18.30
2018,06,04,17,08,18.30
2018,06,04,17,09,18.40
2018,06,04,17,10,18.40
2018,06,04,17,11,18.40
2018,06,04,17,12,18.40
2018,06,04,17,13,18.30
2018,06,04,17,14,18.30
2018,06,04,17,15,18.30
2018,06,04,17,16,18.30
2018,06,04,17,17,18.30
2018,06,04,17,18,18.40
2018,06,04,17,19,18.40
2018,06,04,17,20,18.40
2018,06,04,17,21,18.30
2018,06,04,17,22,18.30
2018,06,04,17,23,18.30
2018,06,04,17,24,18.30
2018,06,04,17,25,18.40
2018,06,04,17,26,18.40
2018,06,04,17,27,18.40
2018,06,04,17,28,18.30
2018,06,04,17,29,18.30